Date String (YYYY-MM-DD hh:mm:ss) UTC,Instrument flags,Ambient pressure (hPa),Sample flow (lpm),Bypass flow (lpm),Sample temperature (°C),Ambient temperature (°C),ASC tube jacket temperature (°C),LED temperature (°C),Box temperature (°C),Sample RH (%),Span deviation,Mass concentration (μg/m³),Mass concentration (μg/m³),Mass concentration (μg/m³)
DateTimeUTC,F1_M11,P_M11,Q1_M11,Q2_M11,T1_M11,T2_M11,T3_M11,T4_M11,T5_M11,U1_M11,ZSPAN_M11,X0_M11,X2_M11,X1_M11
2022-04-21 18:00:00,,0823.1,5.02,0.00,30.0,29.2,00.0,38.8,31.8,10.6,0000.0,0029.48,0008.10,0004.27
2022-04-21 18:01:00,,0823.1,5.00,0.00,30.0,29.2,00.0,38.8,31.8,10.7,0000.0,0030.20,0008.12,0004.27
2022-04-21 18:02:00,,0823.1,4.99,0.00,30.0,29.2,00.0,38.9,31.8,10.7,0000.0,0030.71,0008.16,0004.28
2022-04-21 18:03:00,,0823.1,5.02,0.00,30.1,29.3,00.0,38.9,31.9,10.9,0000.0,0030.58,0008.14,0004.27
2022-04-21 18:04:00,,0823.0,4.99,0.00,30.1,29.3,00.0,38.9,31.9,11.1,0000.0,0029.47,0008.20,0004.27
2022-04-21 18:05:00,,0823.0,4.99,0.00,30.1,29.3,00.0,38.9,31.9,10.8,0000.0,0027.82,0008.17,0004.26
2022-04-21 18:06:00,,0823.0,5.02,0.00,30.1,29.3,00.0,38.9,31.9,10.8,0000.0,0027.11,0008.05,0004.25
2022-04-21 18:07:00,,0823.0,4.98,0.00,30.1,29.3,00.0,38.9,31.9,10.8,0000.0,0028.34,0007.94,0004.24
2022-04-21 18:08:00,,0822.9,5.01,0.00,30.1,29.3,00.0,39.0,31.9,10.8,0000.0,0028.61,0007.90,0004.23
2022-04-21 18:09:00,,0822.9,5.00,0.00,30.2,29.3,00.0,39.0,31.9,10.8,0000.0,0027.06,0007.88,0004.24
2022-04-21 18:10:00,,0822.9,5.00,0.00,30.2,29.3,00.0,39.0,31.9,10.9,0000.0,0025.18,0007.80,0004.25
2022-04-21 18:11:00,,0822.9,4.99,0.00,30.2,29.3,00.0,39.0,31.9,10.8,0000.0,0025.70,0007.73,0004.28
2022-04-21 18:12:00,,0822.8,5.00,0.00,30.2,29.3,00.0,39.0,31.9,10.8,0000.0,0026.70,0007.74,0004.30
2022-04-21 18:13:00,,0822.8,5.01,0.00,30.2,29.3,00.0,39.0,31.9,10.7,0000.0,0026.17,0007.71,0004.33
2022-04-21 18:14:00,,0822.7,4.98,0.00,30.2,29.3,00.0,39.0,31.9,10.7,0000.0,0026.03,0007.80,0004.36
2022-04-21 18:15:00,,0822.7,5.03,0.00,30.2,29.3,00.0,39.0,31.9,11.1,0000.0,0028.19,0007.88,0004.39
2022-04-21 18:16:00,,0822.7,4.98,0.00,30.2,29.4,00.0,39.1,32.0,11.3,0000.0,0030.05,0007.94,0004.41
2022-04-21 18:17:00,,0822.7,5.01,0.00,30.2,29.4,00.0,39.1,32.0,11.1,0000.0,0030.72,0008.06,0004.43
2022-04-21 18:18:00,,0822.7,5.00,0.00,30.2,29.4,00.0,39.1,32.0,11.0,0000.0,0029.89,0008.16,0004.46
2022-04-21 18:19:00,,0822.7,4.99,0.00,30.2,29.4,00.0,39.1,32.0,11.0,0000.0,0029.22,0008.20,0004.48
2022-04-21 18:20:00,,0822.7,5.02,0.00,30.2,29.4,00.0,39.1,32.0,10.8,0000.0,0029.48,0008.26,0004.51
2022-04-21 18:21:00,,0822.7,4.97,0.00,30.2,29.4,00.0,39.1,32.0,10.9,0000.0,0029.74,0008.39,0004.53
2022-04-21 18:22:00,,0822.7,5.02,0.00,30.2,29.4,00.0,39.1,32.0,10.8,0000.0,0030.09,0008.50,0004.55
2022-04-21 18:23:00,,0822.6,4.99,0.00,30.2,29.4,00.0,39.1,32.0,11.0,0000.0,0030.40,0008.48,0004.56
2022-04-21 18:24:00,,0822.6,5.01,0.00,30.2,29.4,00.0,39.1,32.0,11.1,0000.0,0031.88,0008.46,0004.55
2022-04-21 18:25:00,,0822.6,4.99,0.00,30.2,29.4,00.0,39.1,32.0,11.2,0000.0,0032.76,0008.41,0004.54
2022-04-21 18:26:00,,0822.6,4.99,0.00,30.3,29.4,00.0,39.1,32.0,10.9,0000.0,0032.22,0008.30,0004.54
2022-04-21 18:27:00,,0822.5,5.02,0.00,30.3,29.4,00.0,39.1,32.0,10.8,0000.0,0030.48,0008.26,0004.56
2022-04-21 18:28:00,,0822.5,4.99,0.00,30.3,29.4,00.0,39.2,32.0,11.0,0000.0,0029.51,0008.30,0004.58
2022-04-21 18:29:00,,0822.5,5.01,0.00,30.3,29.4,00.0,39.2,32.0,10.9,0000.0,0028.77,0008.31,0004.61
2022-04-21 18:30:00,,0822.5,4.98,0.00,30.3,29.4,00.0,39.2,32.0,10.9,0000.0,0029.47,0008.34,0004.64
2022-04-21 18:31:00,,0822.5,5.02,0.00,30.3,29.5,00.0,39.2,32.0,10.9,0000.0,0031.25,0008.26,0004.66
2022-04-21 18:32:00,,0822.4,5.00,0.00,30.3,29.5,00.0,39.2,32.0,11.0,0000.0,0033.92,0008.23,0004.68
2022-04-21 18:33:00,,0822.4,4.99,0.00,30.3,29.5,00.0,39.2,32.0,11.1,0000.0,0034.55,0008.24,0004.71
2022-04-21 18:34:00,,0822.4,5.01,0.00,30.4,29.5,00.0,39.2,32.0,11.4,0000.0,0033.12,0008.34,0004.79
2022-04-21 18:35:00,,0822.4,5.00,0.00,30.4,29.6,00.0,39.2,32.1,11.4,0000.0,0031.13,0008.39,0004.89
2022-04-21 18:36:00,,0822.3,5.02,0.00,30.4,29.6,00.0,39.2,32.1,11.3,0000.0,0030.74,0008.44,0004.95
2022-04-21 18:37:00,,0822.3,4.98,0.00,30.4,29.6,00.0,39.2,32.1,11.1,0000.0,0029.76,0008.43,0004.99
2022-04-21 18:38:00,,0822.3,5.01,0.00,30.4,29.6,00.0,39.2,32.1,11.1,0000.0,0030.49,0008.53,0005.05
2022-04-21 18:39:00,,0822.3,4.99,0.00,30.4,29.6,00.0,39.3,32.1,11.1,0000.0,0031.23,0008.60,0005.15
2022-04-21 18:40:00,,0822.3,5.01,0.00,30.4,29.6,00.0,39.3,32.1,11.2,0000.0,0032.21,0008.76,0005.23
2022-04-21 18:41:00,,0822.2,5.00,0.00,30.4,29.6,00.0,39.3,32.1,11.1,0000.0,0032.00,0008.93,0005.32
2022-04-21 18:42:00,,0822.3,5.00,0.00,30.4,29.6,00.0,39.3,32.1,11.2,0000.0,0030.21,0009.16,0005.41
2022-04-21 18:43:00,,0822.3,5.00,0.00,30.4,29.6,00.0,39.3,32.1,11.2,0000.0,0028.07,0009.24,0005.49
2022-04-21 18:44:00,,0822.2,5.00,0.00,30.4,29.6,00.0,39.3,32.1,11.2,0003.4,0026.81,0009.35,0005.56
2022-04-21 18:45:00,,0822.2,5.00,0.00,30.4,29.5,00.0,39.3,32.1,11.2,0001.4,0027.83,0009.47,0005.59
2022-04-21 18:46:00,,0822.1,5.00,0.00,30.4,29.2,00.0,39.3,32.0,11.1,-000.1,0028.46,0009.55,0005.61
2022-04-21 18:47:00,,0822.1,5.00,0.00,30.3,27.3,00.0,39.3,31.6,11.2,-001.0,0028.05,0009.62,0005.67
2022-04-21 18:48:00,,0822.1,4.99,0.00,30.1,26.4,00.0,39.2,31.4,11.4,0000.5,0029.92,0009.86,0005.75
2022-04-21 18:49:00,,0822.1,5.00,0.00,30.1,26.7,00.0,39.2,31.4,11.7,-000.2,0031.30,0009.99,0005.80
2022-04-21 18:50:00,,0822.1,5.00,0.00,30.0,27.1,00.0,39.1,31.5,11.6,0000.1,0031.40,0010.02,0005.82
2022-04-21 18:51:00,,0822.1,5.01,0.00,30.0,27.5,00.0,39.1,31.5,11.5,0000.4,0031.33,0009.97,0005.82
2022-04-21 18:52:00,,0822.0,4.99,0.00,30.0,27.8,00.0,39.1,31.6,11.5,0000.6,0031.42,0009.85,0005.81
2022-04-21 18:53:00,,0822.0,5.01,0.00,30.0,28.1,00.0,39.0,31.6,11.6,0000.1,0032.24,0009.76,0005.77
2022-04-21 18:54:00,,0821.9,4.99,0.00,30.0,28.4,00.0,39.0,31.7,11.5,0000.1,0032.80,0009.72,0005.74
2022-04-21 18:55:00,,0821.9,4.99,0.00,30.0,28.6,00.0,39.0,31.7,11.6,0000.1,0032.98,0009.59,0005.73
2022-04-21 18:56:00,,0822.2,5.01,0.00,30.1,28.7,00.0,39.0,31.8,11.5,0000.3,0033.25,0009.61,0005.75
2022-04-21 18:57:00,,0821.8,4.98,0.00,30.1,28.9,00.0,39.0,31.8,11.5,0000.0,0035.18,0009.64,0005.77
2022-04-21 18:58:00,,0821.8,5.00,0.00,30.1,29.0,00.0,39.0,31.9,11.5,0000.0,0037.26,0009.75,0005.79
2022-04-21 18:59:00,,0821.8,5.01,0.00,30.1,29.1,00.0,39.0,31.9,11.5,0000.5,0036.71,0009.72,0005.80
